"Pseudo-MPEC" for P11C7VS

Created 2022 Nov 27 7:22:20 UT using Find_Orb

Click here for an explanation of pseudo-MPECs

 
 Astrometry: 
     P11C7VS* C2022 11 24N4/]rPeNPuR7Lospf`Km?C(qM@in;E^iYG,xEZN@3?F\l,BpK?RBF51
     P11C7VS  C2022 11 24ls2:h1y1D7Px\eVRV4Astrometrylsky;;JZmG'@3A.Dt?BuVMMlF51
     P11C7VS  C2022 11 248Tj.YX,#y!$52KR^8;\fZ$;kQi7Cwn3+MF_YI94h=IThf`X!bD6@F51
     P11C7VS  C2022 11 24:[r]L;4redacted;@)?m)X,q:t4d(V*i\bDxclick`Z?ok7B`KijF51
     P11C7VS IC2022 11 24dL#jYt_-/#j?aY##T=8sad/]K[n%du(.T#m;fJ++eahv,hi$OT33L01
     P11C7VS IC2022 11 24Yn3'tw+0YSLEW1QCP81L.q:xuCR/VeWhereCl+to.Z%A3+gDqgG0L01
     P11C7VS KC2022 11 24SMsJAqd#cuh@r4Lm]4McU:HB^?:@%3mx]ho7-L(nA(GGf[t)64Q3L01
     P11C7VS KC2022 11 24MKMSk,f9*#[S;hYoJM6KV7LvrG%c50vb[#o'05tn9U.D[WncHs?_L01
     P11C7VS KC2022 11 26.20582104 42 20.948+15 05 21.91   ~BQ5M 21.41GVNEOCPI52
     P11C7VS KC2022 11 26.20687504 42 20.844+15 05 24.94   ~BQ5M 21.38GVNEOCPI52
     P11C7VS KC2022 11 26.20793004 42 20.668+15 05 26.81   ~BQ5M 20.59GVNEOCPI52
     P11C7VS KC2022 11 26.20975704 42 20.423+15 05 31.31   ~BQ5M 21.77GVNEOCPI52
     P11C7VS KC2022 11 26FoXGtA\*qE@Nn!8*O-w*c_(xQad$ZJ$O\%#WbbNa\U7;9f6J?u-=H21
     P11C7VS KC2022 11 268^YVmuws!#x$35sL!O=Ln83e*KD;glui8=C13`for3k^k$t*Om!UH21
     P11C7VS KC2022 11 26anhLR9Km[qiw`[n)l(CYsexplanation($QVB5_5k;v_]#7w(_2SH21

Station data:
(F51) Pan-STARRS 1, Haleakala  (N20.707234 W156.255910)  US/Hawaii.
   Observers J. Bulger, T. Lowe, A. Schultz, M. Willman. Measurers K.
   Chambers, S. Chastel, T. de Boer, L. Denneau, J. Fairlamb, H. Flewelling,
   M. Huber, C.-C. Lin, E. Magnier, Y. Ramanjooloo, R. Wainscoat, R. Weryk.
   1.8-m Ritchey-Chrétien + CCD.
(H21) Astronomical Research Observatory, Westfield  (N39.483054 W87.968270)
   US/Illinois.  Observer R. Holmes. Measurers S. Foglia, L. Buzzi, T.
   Linder, R. Holmes. 0.76-m f/3.0 astrograph + CCD0.81-m f/4.0 astrograph +
   CCD0.61-m f/4.5 astrograph + CCD0.40-m f/5.32 astrograph + CCD.
(I52) Steward Observatory, Mt. Lemmon Station  (N32.442544 W110.788920)
   US/Arizona.  Observers T. A. Pruyne, B. M. Africano, E. J. Christensen, G.
   A. Farneth, D. C. Fuls, A. R. Gibbs, A. D. Grauer, H. Gröller, J. A.
   Johnson, R. A. Kowalski, S. M. Larson, G. J. Leonard, D. Rankin, R. L.
   Seaman, F. C. Shelly, K. W. Wierzchoś. 1.0-m reflector + CCD.
(L01) Višnjan Observatory, Tičan  (N45.290897 E13.749300)  Croatia.
   Observers K. Korlević, D. Pujagic, V. Dobos. Measurers D. Pujagic, K.
   Korlević. 1.0-m f/2.9 reflector + CCD.

Orbital elements:  P11C7VS
   Perihelion 2022 Oct 26.52905 +/- 7.03 TT = 12:41:50 (JD 2459879.02905)
Epoch 2022 Nov 26.0 TT = JDT 2459909.5   Earth MOID: 0.4884   Ma: 0.0414
M  12.32476340 +/- 3.2              (J2000 ecliptic)          AutoNEOCP
n   0.40447591 +/- 0.0154           Peri.  336.09804 +/- 4.6
a   1.81081578 +/- 0.046            Node    70.82568 +/- 0.057
e   0.1934235 +/- 0.00889           Incl.   26.48591 +/- 1.1
P   2.44/890.02d           H 21.4   G  0.15   U  9.9
q 1.46056129 +/- 0.0224    Q 2.16107027 +/- 0.0704
From 15 observations 2022 Nov. 24-26 (39.8 hr); mean residual 0".28
Residuals in arcseconds: 
221124 F51  .00   .07+    221124 L01  .06+  .03-    221126 I52  .06+  .63-    
221124 F51  .06+  .01+    221124 L01  .11-  .23-    221126 I52  .11+  .94-    
221124 F51  .04-  .04+    221124 L01  .02+  .20+    221126 H21  .11-  .46+    
221124 F51  .19+  .03-    221126 I52  .03-  .03+    221126 H21  .18-  .37+    
221124 L01  .26-  .04-    221126 I52  .54+  .28+    221126 H21  .24-  .28+    

Ephemerides (geocentric):
Date (UTC) HH   RA             Dec           delta  r     elong  mag " sig PA
---- --------  ------------   ------------  ------ ------ -----  --- --------
2022 11 27 07  04 39 56.923   +15 52 58.44  .49078 1.4739 171.4 21.1 1.83 159
2022 11 27 08  04 39 51.378   +15 54 48.01  .49076 1.4740 171.4 21.1 1.95 159
2022 11 27 09  04 39 45.830   +15 56 37.60  .49075 1.4740 171.5 21.1 2.08 158
2022 11 27 10  04 39 40.279   +15 58 27.19  .49074 1.4740 171.6 21.1 2.21 158
2022 11 27 11  04 39 34.724   +16 00 16.80  .49072 1.4741 171.6 21.1 2.34 157
2022 11 27 12  04 39 29.167   +16 02 06.42  .49071 1.4741 171.7 21.1 2.47 157
2022 11 27 13  04 39 23.606   +16 03 56.04  .49070 1.4741 171.8 21.1 2.61 157
2022 11 27 14  04 39 18.042   +16 05 45.68  .49069 1.4742 171.8 21.1 2.76 156
2022 11 27 15  04 39 12.475   +16 07 35.33  .49068 1.4742 171.9 21.1 2.90 156
2022 11 27 16  04 39 06.905   +16 09 24.99  .49067 1.4742 172.0 21.1 3.05 156
2022 11 27 17  04 39 01.332   +16 11 14.65  .49066 1.4743 172.0 21.1 3.20 156
2022 11 27 18  04 38 55.756   +16 13 04.33  .49065 1.4743 172.1 21.1 3.36 155
2022 11 27 19  04 38 50.177   +16 14 54.01  .49064 1.4743 172.2 21.1 3.52 155
2022 11 27 20  04 38 44.595   +16 16 43.71  .49064 1.4744 172.2 21.1 3.68 155
2022 11 27 21  04 38 39.010   +16 18 33.41  .49063 1.4744 172.3 21.1 3.84 155
2022 11 27 22  04 38 33.422   +16 20 23.12  .49062 1.4744 172.4 21.1 4.01 155
2022 11 27 23  04 38 27.832   +16 22 12.83  .49062 1.4745 172.4 21.1 4.18 154
2022 11 28 00  04 38 22.238   +16 24 02.55  .49061 1.4745 172.5 21.1 4.36 154
2022 11 28 01  04 38 16.641   +16 25 52.28  .49060 1.4746 172.6 21.1 4.53 154
2022 11 28 02  04 38 11.042   +16 27 42.02  .49060 1.4746 172.6 21.1 4.71 154
2022 11 28 03  04 38 05.440   +16 29 31.76  .49060 1.4746 172.7 21.1 4.90 154
2022 11 28 04  04 37 59.835   +16 31 21.51  .49059 1.4747 172.7 21.1 5.09 153
2022 11 28 05  04 37 54.227   +16 33 11.26  .49059 1.4747 172.8 21.1 5.28 153
2022 11 28 06  04 37 48.616   +16 35 01.02  .49059 1.4747 172.9 21.1 5.47 153
2022 11 28 07  04 37 43.003   +16 36 50.79  .49058 1.4748 172.9 21.1 5.67 153
2022 11 28 08  04 37 37.387   +16 38 40.55  .49058 1.4748 173.0 21.1 5.87 153
2022 11 28 09  04 37 31.768   +16 40 30.33  .49058 1.4748 173.1 21.1 6.07 153
2022 11 28 10  04 37 26.146   +16 42 20.10  .49058 1.4749 173.1 21.1 6.28 153
2022 11 28 11  04 37 20.522   +16 44 09.88  .49058 1.4749 173.2 21.1 6.49 152
2022 11 28 12  04 37 14.895   +16 45 59.67  .49058 1.4749 173.3 21.1 6.70 152
2022 11 28 13  04 37 09.265   +16 47 49.45  .49058 1.4750 173.3 21.1 6.92 152
2022 11 28 14  04 37 03.633   +16 49 39.24  .49058 1.4750 173.4 21.1 7.14 152
2022 11 28 15  04 36 57.998   +16 51 29.03  .49058 1.4751 173.4 21.1 7.36 152
2022 11 28 16  04 36 52.361   +16 53 18.83  .49059 1.4751 173.5 21.1 7.59 152
2022 11 28 17  04 36 46.721   +16 55 08.62  .49059 1.4751 173.6 21.1 7.82 152
2022 11 28 18  04 36 41.078   +16 56 58.42  .49059 1.4752 173.6 21.1 8.05 152
2022 11 28 19  04 36 35.433   +16 58 48.22  .49060 1.4752 173.7 21.1 8.29 152
2022 11 28 20  04 36 29.785   +17 00 38.02  .49060 1.4752 173.8 21.1 8.53 151
2022 11 28 21  04 36 24.135   +17 02 27.81  .49061 1.4753 173.8 21.0 8.77 151
2022 11 28 22  04 36 18.483   +17 04 17.61  .49061 1.4753 173.9 21.0 9.02 151
2022 11 28 23  04 36 12.828   +17 06 07.41  .49062 1.4753 174.0 21.0 9.27 151
2022 11 29 00  04 36 07.170   +17 07 57.21  .49062 1.4754 174.0 21.0 9.53 151
2022 11 29 01  04 36 01.511   +17 09 47.01  .49063 1.4754 174.1 21.0 9.78 151
2022 11 29 02  04 35 55.848   +17 11 36.80  .49064 1.4755 174.1 21.0 10.0 151
2022 11 29 03  04 35 50.184   +17 13 26.60  .49065 1.4755 174.2 21.0 10.3 151
2022 11 29 04  04 35 44.517   +17 15 16.39  .49065 1.4755 174.3 21.0 10.6 151
2022 11 29 05  04 35 38.848   +17 17 06.18  .49066 1.4756 174.3 21.0 10.8 151
2022 11 29 06  04 35 33.176   +17 18 55.97  .49067 1.4756 174.4 21.0 11.1 151